Starlink 35732

operational
NORAD ID: 67037 Int'l Des: 2025-294 Owner: SPXS Country: US Constellation: starlink
NOTLE

Über Starlink 35732

Beschreibung wird geladen...

Live-Position

3D-Globus wird geladen...

Nächste Überflüge

Höhenverlauf

Altitude vs Time

uPlot chart will show altitude changes over time

Zweizeiliger Elementsatz

1 67037C 25294H 25346.87548611 .01006000 00000+0 14587-2 0 3464
2 67037 43.0026 182.5103 0009170 283.7146 326.2079 16.03190915 13
Epoch: 12. Dez. 2025 • Age: 54 hours

Aktueller Status

Höhe 266.0 km
Geschwindigkeit 7.75 km/s
Subsatellitenpunkt -40.40°S, 112.42°W
Startdatum 11. Dez. 2025
Alter 2 days
Typ internet

Technische Details

Klassifizierung Payload
Masse 575.00 kg
Trockenmasse 530.00 kg
Gesamtmasse 575.00 kg
Länge 0.30 m
Durchmesser 4.10 m
Spannweite 29.00 m
Form Box + pan
Hersteller SPXS
Bus-Typ Starlink V2MO
Phasenstatus In Orbit
Besitzer/Staat SPXS/US

Große Konstellationen

Loading constellations...